TimeCDT,TemperatureF,Dew PointF,Humidity,Sea Level PressureIn,VisibilityMPH,Wind Direction,Wind SpeedMPH,Gust SpeedMPH,PrecipitationIn,Events,Conditions,WindDirDegrees,DateUTC
12:53 AM,59.0,30.0,33,29.85,10.0,South,12.7,-,N/A,,Clear,170,2014-03-21 05:53:00
1:53 AM,60.1,39.0,46,29.83,10.0,South,15.0,-,N/A,,Clear,180,2014-03-21 06:53:00
2:53 AM,60.1,41.0,49,29.81,10.0,South,12.7,-,N/A,,Clear,180,2014-03-21 07:53:00
3:53 AM,61.0,44.1,54,29.78,10.0,South,11.5,-,N/A,,Clear,180,2014-03-21 08:53:00
4:53 AM,60.1,46.0,60,29.76,10.0,South,11.5,-,N/A,,Clear,180,2014-03-21 09:53:00
5:53 AM,59.0,48.0,67,29.76,10.0,South,13.8,-,N/A,,Clear,180,2014-03-21 10:53:00
6:53 AM,59.0,48.9,69,29.75,10.0,South,13.8,-,N/A,,Clear,180,2014-03-21 11:53:00
7:53 AM,57.9,50.0,75,29.78,10.0,South,9.2,-,N/A,,Clear,190,2014-03-21 12:53:00
8:53 AM,57.9,50.0,75,29.80,10.0,South,9.2,-,N/A,,Clear,190,2014-03-21 13:53:00
9:53 AM,61.0,50.0,67,29.80,10.0,SSW,13.8,-,N/A,,Clear,200,2014-03-21 14:53:00
10:53 AM,66.0,48.0,52,29.81,10.0,SW,11.5,-,N/A,,Clear,220,2014-03-21 15:53:00
11:53 AM,72.0,43.0,35,29.81,10.0,WSW,17.3,-,N/A,,Clear,240,2014-03-21 16:53:00
12:53 PM,79.0,34.0,20,29.78,10.0,WSW,15.0,21.9,N/A,,Clear,250,2014-03-21 17:53:00
1:53 PM,82.9,27.0,13,29.75,10.0,West,15.0,20.7,N/A,,Clear,280,2014-03-21 18:53:00
2:53 PM,86.0,23.0,10,29.73,10.0,WNW,13.8,24.2,N/A,,Clear,290,2014-03-21 19:53:00
3:53 PM,82.9,19.0,9,29.71,10.0,WSW,12.7,24.2,N/A,,Clear,250,2014-03-21 20:53:00
4:53 PM,84.9,17.1,8,29.69,10.0,WNW,12.7,21.9,N/A,,Clear,290,2014-03-21 21:53:00
5:53 PM,86.0,17.1,8,29.69,10.0,West,13.8,21.9,N/A,,Clear,270,2014-03-21 22:53:00
6:53 PM,82.9,17.1,9,29.70,10.0,West,8.1,-,N/A,,Clear,260,2014-03-21 23:53:00
7:53 PM,75.0,18.0,12,29.72,10.0,West,5.8,-,N/A,,Clear,270,2014-03-22 00:53:00
8:53 PM,68.0,19.9,16,29.76,9.0,NNW,4.6,-,N/A,,Clear,330,2014-03-22 01:53:00
9:53 PM,66.9,21.0,17,29.79,10.0,NNE,12.7,18.4,N/A,,Clear,20,2014-03-22 02:53:00
10:53 PM,66.9,24.1,20,29.82,10.0,ENE,20.7,26.5,N/A,,Clear,60,2014-03-22 03:53:00
11:53 PM,63.0,28.0,27,29.85,10.0,ENE,18.4,-,N/A,,Clear,60,2014-03-22 04:53:00